To NAV CANADA Home Page Login to a new session Search on AWWS site Feedback and Comments Disclaimer Vers la page française équivalente Tips FAQ What's new on the site To the Forecasts and Observations / NOTAM section To "File a Flight Plan" website Publications and other links Update of the User's profile FIC Telephone Numbers My Weather Data Folder Route Weather Data Regional Weather Data Local Weather Data To the Forecasts and Observations / NOTAM section
Request Generated 10/10/2015 at 01:23:43 UTC . Weather information available at that time is displayed.



LWIS CYLU 100100Z AUTO 22005KT 190V270 01/M00 A2944=
LWIS CYLU 100000Z AUTO 28008KT 01/M00 A2942=
LWIS CYLU 092300Z AUTO VRB10G25KT 02/00 A2941=

CYLU - No TAF is issued for this station

Your time UTC time
Weather data provided by Environment Canada and NAV CANADA